TimeCST,TemperatureF,Dew PointF,Humidity,Sea Level PressureIn,VisibilityMPH,Wind Direction,Wind SpeedMPH,Gust SpeedMPH,PrecipitationIn,Events,Conditions,WindDirDegrees,DateUTC
12:15 AM,0.1,-10.5,61,30.14,10.0,West,8.1,-,N/A,,Clear,260,2014-01-29 06:15:00
12:35 AM,0.1,-10.5,61,30.13,10.0,West,8.1,-,N/A,,Clear,260,2014-01-29 06:35:00
12:55 AM,-0.2,-10.3,62,30.12,10.0,West,9.2,-,N/A,,Clear,260,2014-01-29 06:55:00
1:15 AM,-0.0,-10.3,62,30.12,10.0,West,9.2,-,N/A,,Clear,260,2014-01-29 07:15:00
1:35 AM,-0.4,-10.3,63,30.11,10.0,West,10.4,-,N/A,,Clear,260,2014-01-29 07:35:00
1:55 AM,-0.4,-10.3,63,30.10,10.0,West,10.4,-,N/A,,Clear,260,2014-01-29 07:55:00
2:15 AM,-0.4,-10.5,62,30.10,10.0,West,8.1,-,N/A,,Clear,260,2014-01-29 08:15:00
2:35 AM,-0.6,-10.5,63,30.10,10.0,West,6.9,-,N/A,,Clear,260,2014-01-29 08:35:00
2:55 AM,-0.6,-10.3,64,30.10,10.0,WSW,6.9,-,N/A,,Clear,250,2014-01-29 08:55:00
3:15 AM,-0.6,-10.5,63,30.10,10.0,WSW,8.1,-,N/A,,Clear,240,2014-01-29 09:15:00
3:35 AM,-0.6,-10.7,62,30.09,10.0,WSW,8.1,-,N/A,,Clear,250,2014-01-29 09:35:00
3:55 AM,-0.6,-10.7,62,30.09,10.0,WSW,5.8,-,N/A,,Clear,240,2014-01-29 09:55:00
4:15 AM,-0.6,-10.5,63,30.09,10.0,WSW,6.9,-,N/A,,Clear,250,2014-01-29 10:15:00
4:35 AM,-0.6,-10.3,64,30.09,10.0,SW,5.8,-,N/A,,Clear,220,2014-01-29 10:35:00
4:55 AM,-1.3,-10.5,65,30.09,10.0,SW,6.9,-,N/A,,Clear,220,2014-01-29 10:55:00
5:15 AM,-0.6,-10.1,64,30.09,10.0,WSW,5.8,-,N/A,,Clear,240,2014-01-29 11:15:00
5:35 AM,-0.4,-10.3,63,30.09,10.0,WSW,6.9,-,N/A,,Clear,250,2014-01-29 11:35:00
5:55 AM,0.1,-10.3,61,30.09,10.0,WSW,4.6,-,N/A,,Clear,250,2014-01-29 11:55:00
6:15 AM,-0.4,-10.8,61,30.09,10.0,SW,3.5,-,N/A,,Clear,220,2014-01-29 12:15:00
6:35 AM,-0.8,-10.5,63,30.09,10.0,SSW,5.8,-,N/A,,Clear,210,2014-01-29 12:35:00
6:55 AM,-0.9,-10.3,65,30.09,10.0,SW,6.9,-,N/A,,Clear,220,2014-01-29 12:55:00
7:15 AM,-0.9,-10.3,65,30.09,10.0,SW,4.6,-,N/A,,Clear,230,2014-01-29 13:15:00
7:35 AM,-0.6,-10.3,64,30.09,10.0,SW,4.6,-,N/A,,Clear,230,2014-01-29 13:35:00
7:55 AM,0.1,-10.3,61,30.09,10.0,SW,3.5,-,N/A,,Clear,220,2014-01-29 13:55:00
8:15 AM,1.2,-10.1,59,30.08,10.0,Calm,Calm,-,N/A,,Clear,0,2014-01-29 14:15:00
8:35 AM,3.0,-9.4,56,30.08,10.0,SW,5.8,-,N/A,,Clear,220,2014-01-29 14:35:00
8:55 AM,5.5,-8.7,52,30.08,10.0,SW,8.1,-,N/A,,Clear,230,2014-01-29 14:55:00
9:15 AM,7.3,-8.5,48,30.08,10.0,WSW,9.2,-,N/A,,Clear,240,2014-01-29 15:15:00
9:35 AM,8.6,-8.0,47,30.09,10.0,WSW,10.4,-,N/A,,Clear,240,2014-01-29 15:35:00
9:55 AM,9.1,-7.8,46,30.10,10.0,SW,9.2,-,N/A,,Clear,230,2014-01-29 15:55:00
10:15 AM,9.9,-7.2,46,30.09,10.0,WSW,9.2,-,N/A,,Clear,250,2014-01-29 16:15:00
10:35 AM,11.7,-6.3,44,30.09,10.0,WSW,8.1,-,N/A,,Clear,240,2014-01-29 16:35:00
10:55 AM,13.1,-6.3,42,30.09,10.0,WSW,8.1,-,N/A,,Clear,240,2014-01-29 16:55:00
11:15 AM,14.9,-5.4,40,30.08,10.0,SW,6.9,-,N/A,,Clear,230,2014-01-29 17:15:00
11:35 AM,16.7,-5.4,37,30.08,10.0,SW,10.4,-,N/A,,Clear,230,2014-01-29 17:35:00
11:55 AM,17.8,-4.0,38,30.06,10.0,SW,9.2,18.4,N/A,,Clear,220,2014-01-29 17:55:00
12:15 PM,18.7,-3.3,38,30.05,10.0,WSW,11.5,17.3,N/A,,Clear,240,2014-01-29 18:15:00
12:35 PM,19.2,-3.3,37,30.04,10.0,SW,11.5,-,N/A,,Clear,230,2014-01-29 18:35:00
12:55 PM,19.9,-2.9,37,30.03,10.0,SW,12.7,18.4,N/A,,Clear,230,2014-01-29 18:55:00
1:15 PM,20.8,-2.2,36,30.02,10.0,WSW,13.8,20.7,N/A,,Clear,240,2014-01-29 19:15:00
1:35 PM,21.0,-1.3,38,30.02,10.0,SW,11.5,19.6,N/A,,Clear,230,2014-01-29 19:35:00
1:55 PM,21.0,-2.2,36,30.01,10.0,WSW,11.5,21.9,N/A,,Clear,240,2014-01-29 19:55:00
2:15 PM,21.7,-1.8,36,30.01,10.0,SW,11.5,-,N/A,,Clear,230,2014-01-29 20:15:00
2:35 PM,21.9,-1.8,35,30.00,10.0,SSW,12.7,-,N/A,,Clear,210,2014-01-29 20:35:00
2:55 PM,22.5,-1.5,35,29.98,10.0,SW,12.7,-,N/A,,Clear,220,2014-01-29 20:55:00
3:15 PM,22.5,-1.3,36,29.98,10.0,SW,13.8,18.4,N/A,,Clear,220,2014-01-29 21:15:00
3:35 PM,22.6,-0.6,36,29.98,10.0,SSW,11.5,-,N/A,,Clear,200,2014-01-29 21:35:00
3:55 PM,21.2,0.5,41,29.97,10.0,South,13.8,19.6,N/A,,Clear,190,2014-01-29 21:55:00
4:15 PM,20.3,1.2,44,29.97,10.0,South,9.2,-,N/A,,Clear,190,2014-01-29 22:15:00
4:35 PM,20.3,1.8,45,29.97,10.0,South,10.4,16.1,N/A,,Clear,190,2014-01-29 22:35:00
4:55 PM,19.8,2.7,48,29.95,10.0,South,10.4,-,N/A,,Clear,190,2014-01-29 22:55:00
5:15 PM,19.2,3.6,51,29.94,10.0,South,11.5,17.3,N/A,,Clear,180,2014-01-29 23:15:00
5:35 PM,18.3,4.1,54,29.93,10.0,South,9.2,-,N/A,,Clear,180,2014-01-29 23:35:00
5:55 PM,17.6,4.8,57,29.92,10.0,South,12.7,-,N/A,,Clear,180,2014-01-29 23:55:00
6:15 PM,17.6,5.2,58,29.92,10.0,South,9.2,-,N/A,,Clear,180,2014-01-30 00:15:00
6:35 PM,18.0,5.9,59,29.91,10.0,South,12.7,-,N/A,,Clear,190,2014-01-30 00:35:00
6:55 PM,18.3,6.4,60,29.90,10.0,South,13.8,17.3,N/A,,Clear,180,2014-01-30 00:55:00
7:15 PM,18.3,6.4,60,29.89,10.0,South,12.7,19.6,N/A,,Clear,180,2014-01-30 01:15:00
7:35 PM,19.0,6.8,59,29.87,10.0,South,15.0,19.6,N/A,,Clear,180,2014-01-30 01:35:00
7:55 PM,20.1,6.8,56,29.87,10.0,South,17.3,-,N/A,,Clear,190,2014-01-30 01:55:00
8:15 PM,21.0,7.0,55,29.85,10.0,South,18.4,24.2,N/A,,Clear,190,2014-01-30 02:15:00
8:35 PM,22.3,7.3,53,29.83,10.0,SSW,21.9,28.8,N/A,,Clear,200,2014-01-30 02:35:00
8:55 PM,23.0,7.5,52,29.83,10.0,SSW,19.6,27.6,N/A,,Clear,200,2014-01-30 02:55:00
9:15 PM,23.5,7.7,51,29.83,10.0,SSW,19.6,27.6,N/A,,Clear,200,2014-01-30 03:15:00
9:35 PM,23.9,7.3,49,29.84,10.0,SSW,19.6,26.5,N/A,,Clear,210,2014-01-30 03:35:00
9:55 PM,24.3,7.2,48,29.83,10.0,SSW,19.6,25.3,N/A,,Clear,210,2014-01-30 03:55:00
10:15 PM,23.9,7.3,49,29.83,10.0,SSW,17.3,27.6,N/A,,Clear,200,2014-01-30 04:15:00
10:35 PM,23.9,7.3,49,29.81,10.0,SSW,19.6,23.0,N/A,,Clear,200,2014-01-30 04:35:00
10:55 PM,23.9,7.5,50,29.81,10.0,SSW,18.4,26.5,N/A,,Scattered Clouds,200,2014-01-30 04:55:00
11:15 PM,23.9,7.5,50,29.81,10.0,SSW,17.3,25.3,N/A,,Clear,200,2014-01-30 05:15:00
11:35 PM,23.9,7.7,50,29.79,10.0,SSW,19.6,26.5,N/A,,Clear,200,2014-01-30 05:35:00
11:55 PM,23.7,7.7,51,29.79,10.0,SSW,17.3,25.3,N/A,,Clear,200,2014-01-30 05:55:00